TimePDT,TemperatureF,Dew PointF,Humidity,Sea Level PressureIn,VisibilityMPH,Wind Direction,Wind SpeedMPH,Gust SpeedMPH,PrecipitationIn,Events,Conditions,WindDirDegrees,DateUTC
12:22 AM,32.0,32.0,100,30.15,0.2,South,9.2,-,0.00,Fog,Fog,170,2012-10-25 07:22:00
12:32 AM,32.0,32.0,100,30.16,0.2,South,8.1,-,0.00,Fog,Fog,170,2012-10-25 07:32:00
12:56 AM,32.0,30.9,96,30.23,0.2,South,10.4,-,0.00,Fog,Fog,180,2012-10-25 07:56:00
1:14 AM,32.0,30.2,93,30.16,0.5,South,9.2,-,N/A,Fog,Fog,180,2012-10-25 08:14:00
1:31 AM,32.0,30.2,93,30.17,0.2,South,10.4,-,N/A,Fog,Fog,190,2012-10-25 08:31:00
1:40 AM,32.0,30.2,93,30.17,0.2,South,10.4,-,N/A,Fog,Fog,190,2012-10-25 08:40:00
1:48 AM,32.0,30.2,93,30.17,0.5,South,10.4,-,N/A,Fog,Fog,190,2012-10-25 08:48:00
1:53 AM,32.0,30.2,93,30.17,0.5,South,9.2,-,N/A,Fog,Fog,190,2012-10-25 08:53:00
1:56 AM,32.0,30.9,96,30.25,0.8,South,9.2,-,0.00,,Overcast,190,2012-10-25 08:56:00
2:02 AM,32.0,30.2,93,30.18,3.0,South,10.4,-,0.00,,Overcast,190,2012-10-25 09:02:00
2:13 AM,32.0,30.2,93,30.18,5.0,South,9.2,-,0.00,,Overcast,190,2012-10-25 09:13:00
2:21 AM,32.0,30.2,93,30.18,1.8,South,9.2,-,0.00,,Overcast,180,2012-10-25 09:21:00
2:25 AM,32.0,30.2,93,30.18,0.8,South,8.1,-,0.00,,Overcast,180,2012-10-25 09:25:00
2:38 AM,32.0,30.2,93,30.18,0.5,South,9.2,-,0.00,Fog,Fog,180,2012-10-25 09:38:00
2:47 AM,32.0,30.2,93,30.18,0.2,South,8.1,-,0.00,Fog,Fog,180,2012-10-25 09:47:00
2:56 AM,32.0,30.9,96,30.25,0.2,South,8.1,-,0.00,Fog,Fog,170,2012-10-25 09:56:00
3:44 AM,32.0,30.2,93,30.19,0.5,South,8.1,-,N/A,Fog,Fog,170,2012-10-25 10:44:00
3:56 AM,32.0,32.0,100,30.27,1.0,SSE,5.8,-,N/A,,Overcast,160,2012-10-25 10:56:00
4:09 AM,32.0,32.0,100,30.20,0.2,SE,8.1,-,N/A,Fog,Fog,140,2012-10-25 11:09:00
4:16 AM,32.0,30.2,93,30.20,1.0,SE,8.1,-,N/A,,Overcast,140,2012-10-25 11:16:00
4:24 AM,32.0,32.0,100,30.20,1.5,SE,6.9,-,N/A,,Overcast,140,2012-10-25 11:24:00
4:31 AM,32.0,30.2,93,30.20,3.0,SSE,8.1,-,N/A,,Overcast,150,2012-10-25 11:31:00
4:50 AM,32.0,30.2,93,30.20,1.2,SSE,6.9,-,N/A,,Overcast,150,2012-10-25 11:50:00
4:56 AM,32.0,30.9,96,30.27,0.5,SE,5.8,-,N/A,Fog,Fog,140,2012-10-25 11:56:00
5:07 AM,32.0,30.2,93,30.21,1.5,SSE,5.8,-,N/A,,Mostly Cloudy,150,2012-10-25 12:07:00
5:15 AM,32.0,30.2,93,30.21,0.8,SSE,6.9,-,N/A,,Mostly Cloudy,150,2012-10-25 12:15:00
5:26 AM,32.0,30.2,93,30.21,1.0,SE,6.9,-,N/A,,Mist,140,2012-10-25 12:26:00
5:28 AM,32.0,30.2,93,30.21,1.5,SE,6.9,-,N/A,,Scattered Clouds,140,2012-10-25 12:28:00
5:35 AM,32.0,30.2,93,30.22,3.0,SSE,8.1,-,N/A,,Scattered Clouds,150,2012-10-25 12:35:00
5:38 AM,32.0,30.2,93,30.22,2.0,SE,8.1,-,N/A,,Mostly Cloudy,140,2012-10-25 12:38:00
5:40 AM,32.0,30.2,93,30.22,1.2,SE,6.9,-,N/A,,Mostly Cloudy,140,2012-10-25 12:40:00
5:48 AM,32.0,30.2,93,30.22,0.2,SE,6.9,-,N/A,Fog,Fog,140,2012-10-25 12:48:00
5:56 AM,32.0,30.9,96,30.31,0.2,SE,6.9,-,N/A,Fog,Fog,140,2012-10-25 12:56:00
6:05 AM,32.0,30.2,93,30.23,0.5,SE,6.9,-,N/A,Fog,Fog,140,2012-10-25 13:05:00
6:14 AM,32.0,30.2,93,30.23,0.2,SE,6.9,-,N/A,Fog,Fog,140,2012-10-25 13:14:00
6:56 AM,32.0,30.9,96,30.31,0.2,SE,6.9,-,N/A,Fog,Fog,130,2012-10-25 13:56:00
7:34 AM,32.0,30.2,93,30.25,0.2,SE,8.1,-,N/A,Fog,Fog,130,2012-10-25 14:34:00
7:51 AM,32.0,30.2,93,30.25,0.2,SE,9.2,-,N/A,Fog,Fog,130,2012-10-25 14:51:00
7:56 AM,32.0,30.9,96,30.33,0.2,SE,9.2,-,N/A,Fog,Fog,130,2012-10-25 14:56:00
8:56 AM,34.0,33.1,96,30.35,0.2,ESE,8.1,-,N/A,Fog,Fog,110,2012-10-25 15:56:00
9:19 AM,35.6,33.8,93,30.28,0.5,ESE,6.9,-,N/A,Fog,Fog,110,2012-10-25 16:19:00
9:32 AM,33.8,33.8,100,30.29,0.2,ESE,6.9,-,N/A,Fog,Fog,110,2012-10-25 16:32:00
9:56 AM,34.0,33.1,96,30.37,0.2,SE,8.1,-,N/A,Fog,Fog,130,2012-10-25 16:56:00
10:56 AM,35.1,35.1,100,30.38,-9999.0,SE,5.8,-,N/A,,Overcast,140,2012-10-25 17:56:00
11:10 AM,35.6,35.6,100,30.31,0.2,ESE,6.9,-,N/A,Fog,Fog,110,2012-10-25 18:10:00
11:56 AM,35.1,34.0,96,30.39,0.5,SE,3.5,-,N/A,Fog,Fog,130,2012-10-25 18:56:00
12:04 PM,35.6,35.6,100,30.32,0.2,Calm,Calm,-,N/A,Fog,Fog,0,2012-10-25 19:04:00
12:40 PM,35.6,33.8,93,30.32,0.5,ESE,6.9,-,N/A,Fog,Fog,120,2012-10-25 19:40:00
12:49 PM,35.6,33.8,93,30.32,1.2,Variable,4.6,-,N/A,,Overcast,0,2012-10-25 19:49:00
12:53 PM,35.6,35.6,100,30.32,3.0,Calm,Calm,-,N/A,,Overcast,0,2012-10-25 19:53:00
12:56 PM,36.0,35.1,97,30.39,7.0,Variable,3.5,-,N/A,,Overcast,0,2012-10-25 19:56:00
1:44 PM,39.2,37.4,93,30.31,10.0,SSE,5.8,-,N/A,,Mostly Cloudy,150,2012-10-25 20:44:00
1:56 PM,41.0,37.9,89,30.36,10.0,Variable,4.6,-,N/A,,Mostly Cloudy,0,2012-10-25 20:56:00
2:31 PM,41.0,37.4,87,30.30,10.0,SE,5.8,-,N/A,,Scattered Clouds,130,2012-10-25 21:31:00
2:56 PM,42.1,37.0,82,30.36,10.0,SE,5.8,-,N/A,,Partly Cloudy,140,2012-10-25 21:56:00
3:56 PM,42.1,36.0,79,30.35,10.0,SE,8.1,-,N/A,,Clear,130,2012-10-25 22:56:00
4:56 PM,39.9,35.1,83,30.37,10.0,ESE,6.9,-,N/A,,Mostly Cloudy,120,2012-10-25 23:56:00
5:56 PM,39.0,34.0,82,30.38,10.0,East,5.8,-,N/A,,Mostly Cloudy,100,2012-10-26 00:56:00
6:56 PM,39.9,33.1,77,30.38,10.0,ESE,6.9,-,N/A,,Mostly Cloudy,120,2012-10-26 01:56:00
7:56 PM,37.9,33.1,83,30.36,10.0,SE,9.2,-,N/A,,Overcast,140,2012-10-26 02:56:00
8:56 PM,37.9,33.1,83,30.35,10.0,SE,10.4,-,N/A,,Mostly Cloudy,130,2012-10-26 03:56:00
9:56 PM,39.0,33.1,79,30.34,10.0,SE,12.7,-,N/A,,Clear,140,2012-10-26 04:56:00
10:56 PM,39.0,34.0,82,30.33,10.0,SE,13.8,-,N/A,,Overcast,140,2012-10-26 05:56:00
11:56 PM,39.0,33.1,79,30.34,10.0,SE,12.7,-,N/A,,Overcast,140,2012-10-26 06:56:00